Location: ??
(34.7226°N, 135.6259°E)
Time: 12:47:33
(UTC+00:00)

Daily predictions for brighter satellites

Satellite Brightness Start Highest point End
(mag) Time Altitude Azimuth Time Altitude Azimuth Time Altitude Azimuth
Cosmos 2344 4.1 18:47:25 51° ESE 18:47:30 51° ESE 18:54:48 10° NE
Cosmos 2219 4.5 19:11:47 35° SE 19:11:47 35° SE 19:15:10 10° SSE
Cosmos 2297 Rocket 2.6 19:26:39 58° ENE 19:26:39 58° ENE 19:32:01 10° SE
CZ-3B R/B 3.7 19:32:33 11° SE 19:32:33 11° SE 19:32:48 10° SE
CZ-3 R/B 3.4 19:21:42 39° WSW 19:30:36 65° S 19:38:21 10° E
Cosmos 2227 Rocket 2.4 19:37:53 63° NE 19:38:24 67° ENE 19:44:00 10° SSE
ATLAS 2AS CENTAUR R/B 4.3 19:38:12 10° S 19:45:18 39° ESE 19:52:34 10° NE
SEDSat Delta rocket 3.8 19:46:26 62° SSW 19:46:46 63° S 19:52:17 10° E
Cosmos 2184 Rocket 4.0 19:43:28 18° N 19:48:12 82° E 19:54:28 10° S
Cosmos 2278 3.8 19:45:56 21° S 19:49:49 75° ESE 19:55:31 10° NNE
STARLINK-58 4.4 19:54:40 46° SE 19:54:40 46° SE 19:58:24 10° ENE
STARLINK-62 4.3 19:56:28 50° ESE 19:56:28 50° ESE 20:00:12 10° NE
Cosmos 2369 3.6 19:58:17 64° NW 19:58:17 64° NW 20:03:41 10° NNE
STARLINK 4.2 20:02:00 48° SE 20:02:13 48° SE 20:05:57 10° ENE
ALOS 2.7 19:57:48 10° NNE 20:02:27 62° E 20:07:03 10° S
COSMOS 2455 3.2 19:58:09 10° SSW 20:04:03 65° ESE 20:10:01 10° NNE
METEOR-M 4.4 20:00:22 10° NNE 20:05:42 67° ESE 20:11:00 10° S
BREEZE-M DEB (TANK) 4.3 20:06:28 21° N 20:06:28 21° N 20:10:35 10° NE
SJ-12 4.0 20:02:05 10° NNE 20:06:09 75° ESE 20:10:12 10° S
BREEZE-M DEB (TANK) 3.9 20:07:31 25° ENE 20:07:31 25° ENE 20:08:43 10° E
Cosmos 1610 Rocket 4.5 20:06:12 10° N 20:12:30 85° E 20:18:50 10° S
Cosmos 1602 Rocket 3.4 20:14:54 38° N 20:16:32 85° W 20:20:50 10° S
STARLINK-34 3.5 20:17:03 61° SSW 20:17:43 84° SE 20:21:45 10° NE
Cosmos 2074 Rocket 4.0 20:14:50 20° NNW 20:19:06 52° W 20:25:06 10° SSW
CZ-3 Stage 3 3.3 20:17:21 31° WSW 20:19:50 44° SSW 20:23:04 10° SE
STARLINK-24 3.4 20:19:08 58° SW 20:19:53 87° SE 20:23:55 10° NE
SKYMED 2 3.5 20:15:47 10° SSE 20:20:06 87° E 20:23:08 20° N
CZ-4B R/B 4.0 20:15:12 10° NNE 20:20:35 51° E 20:25:51 10° S
STARLINK-81 3.5 20:19:40 47° SSW 20:20:44 81° SE 20:24:46 10° NE
Cosmos 1980 Rocket 2.1 20:16:27 10° SSW 20:22:08 80° WNW 20:27:51 10° NNE
STARLINK-54 3.4 20:21:45 54° SW 20:22:36 88° NW 20:26:39 10° NE
STARLINK-77 3.4 20:22:56 45° SW 20:24:06 87° SE 20:28:08 10° NE
STARLINK-25 3.4 20:24:33 43° SW 20:25:47 90° NW 20:29:49 10° NE
STARLINK-71 3.4 20:26:37 49° WSW 20:27:38 77° NW 20:31:39 10° NE
STARLINK-79 3.4 20:27:42 40° SW 20:29:03 83° NW 20:33:05 10° NE
STARLINK-78 3.4 20:29:21 39° SW 20:30:45 80° NW 20:34:47 10° NE
Cosmos 1697 Rocket 3.2 20:30:27 34° WNW 20:30:52 34° WNW 20:35:57 10° N
FENGYUN 3A 3.5 20:25:52 10° N 20:31:15 71° WNW 20:36:37 10° SSW
BREEZE M DEB (TANK) 3.7 20:32:33 25° N 20:32:33 25° N 20:34:53 10° NE
Helios 1A Rocket 3.9 20:27:58 10° NNE 20:31:58 49° E 20:35:59 10° S
STARLINK-57 3.4 20:31:11 40° WSW 20:32:30 73° NW 20:36:32 10° NE
Meteor 1-24 Rocket 4.4 20:32:25 31° W 20:32:54 32° W 20:38:03 10° SSW
Cosmos 1758 Rocket 4.1 20:28:54 10° N 20:33:13 59° E 20:37:34 10° SSE
Okean O Rocket 1.8 20:29:22 10° NNE 20:33:50 73° ESE 20:38:13 10° S
STARLINK-49 3.4 20:32:30 36° WSW 20:34:01 74° NW 20:38:03 10° NE
STARLINK-27 3.4 20:34:05 35° WSW 20:35:40 71° NW 20:39:41 10° NE
STARLINK-74 3.4 20:35:41 33° WSW 20:37:19 69° NW 20:41:21 10° NE
USA 116 4.3 20:33:28 10° SSE 20:38:30 79° ENE 20:43:05 10° N
STARLINK-39 3.4 20:37:17 32° WSW 20:38:59 66° NW 20:42:59 10° NE
Cosmos 1626 Rocket 4.2 20:39:34 33° W 20:39:37 33° W 20:43:30 10° SSW
STARLINK 3.5 20:38:54 31° WSW 20:40:38 63° NW 20:44:38 10° NE
STARLINK-69 3.6 20:40:57 32° WSW 20:42:32 55° NW 20:46:30 10° NE
SL-4 R/B 4.1 20:41:29 11° N 20:43:23 15° NNE 20:45:25 10° ENE
STARLINK-21 3.5 20:42:08 29° WSW 20:43:58 58° NW 20:47:57 10° NE
Cosmos 1626 3.6 20:46:27 21° WSW 20:46:27 21° WSW 20:48:15 10° SSW
STARLINK-45 3.7 20:44:15 30° W 20:45:53 49° NW 20:49:48 10° NE
STARLINK-33 3.6 20:45:28 34° W 20:46:27 44° NW 20:49:58 10° NNE
MOS 1-B 4.4 20:41:15 10° N 20:46:51 52° WNW 20:52:25 10° SW
Cosmos 2181 Rocket 4.1 20:41:16 10° S 20:47:25 83° E 20:53:41 10° N
STARLINK-70 3.7 20:45:36 28° WSW 20:47:25 50° NW 20:51:21 10° NE
STARLINK-76 3.7 20:46:56 25° WSW 20:48:58 52° NW 20:52:54 10° NE
Cosmos 2058 Rocket 4.0 20:46:09 10° SSE 20:50:26 51° E 20:54:42 10° NNE
STARLINK 3.7 20:48:34 24° WSW 20:50:40 50° NW 20:54:36 10° NE
STARLINK-66 3.8 20:49:52 30° W 20:50:58 39° NW 20:54:25 10° NNE
STARLINK-42 3.8 20:49:49 27° W 20:51:23 43° NW 20:55:03 10° NNE
STARLINK-32 3.8 20:50:07 23° WSW 20:52:17 48° NW 20:56:12 10° NE
Cosmos 923 Rocket 3.9 20:47:05 10° SSW 20:52:19 84° WNW 20:57:38 10° NNE
STARLINK-64 3.8 20:50:45 26° W 20:52:26 43° NW 20:56:07 10° NNE
STARLINK-40 3.8 20:51:43 22° WSW 20:53:57 46° NW 20:57:51 10° NE
STARLINK-44 3.9 20:53:16 21° WSW 20:55:34 45° NW 20:59:26 10° NNE
STARLINK-55 4.0 20:54:44 26° WNW 20:55:58 34° NW 20:59:18 10° NNE
H-2A R/B 3.5 20:53:10 10° NNE 20:57:01 56° E 21:00:49 10° S
STARLINK-37 4.0 20:55:08 21° W 20:57:22 41° NW 21:01:11 10° NNE
Cosmos 2082 4.1 20:53:18 14° NW 20:57:44 41° WSW 21:03:02 10° S
Cosmos 2341 Rocket 3.9 20:52:13 10° N 20:58:28 78° W 21:04:39 10° S
Cosmos 44 Rocket 3.1 20:54:19 13° NNW 20:58:35 78° WSW 21:03:21 10° SSE
STARLINK-36 4.0 20:56:30 20° WSW 20:58:56 42° NW 21:02:47 10° NNE
STARLINK 1040 4.4 20:56:34 10° SSW 20:59:11 33° SE 21:01:49 10° ENE
Cosmos 1825 Rocket 3.4 20:55:07 10° N 20:59:27 76° W 21:03:47 10° S
STARLINK-68 4.1 20:58:33 20° W 21:00:48 37° NW 21:04:34 10° NNE
NOSS 3-4 (A) 3.3 20:55:13 10° SSW 21:01:10 87° NW 21:07:21 10° NNE
NOSS 3-4 (C) 3.3 20:55:20 10° SSW 21:01:16 88° WNW 21:07:28 10° NNE
Cosmos 2344 4.4 20:57:32 16° W 21:02:14 28° NW 21:08:55 10° NNE
STARLINK-63 4.1 20:59:55 19° W 21:02:20 37° NW 21:06:06 10° NNE
SMAP 3.8 20:58:20 10° NNE 21:02:56 58° E 21:07:30 10° S
SL-8 Rocket 4.1 20:57:39 10° N 21:03:53 83° E 21:10:03 10° S
STARLINK-35 4.1 21:01:17 17° W 21:03:55 38° NW 21:07:42 10° NNE
STARLINK-67 3.6 21:03:21 24° W 21:04:08 28° SW 21:06:29 10° SSE
Cosmos 1908 3.3 21:00:26 10° S 21:04:20 81° E 21:08:15 10° N
STARLINK-51 4.1 21:02:52 17° W 21:05:33 36° NW 21:09:18 10° NNE
STARLINK-28 4.3 21:04:24 20° WNW 21:05:46 25° NW 21:08:48 10° NNE
USA 215 3.3 21:00:03 10° SE 21:06:33 72° SW 21:13:05 10° NW
ATLAS 3B R/B 4.3 21:00:52 10° N 21:06:36 29° NE 21:12:27 10° ESE
CZ-3B R/B 3.2 21:05:51 10° SSW 21:07:02 11° SSW 21:08:15 10° S
STARLINK-30 4.2 21:04:23 16° W 21:07:08 35° NW 21:10:52 10° NNE
Cosmos 1726 2.4 21:04:27 10° SSW 21:07:57 42° W 21:11:28 10° N
Lacrosse 5 3.2 21:03:12 10° SSW 21:08:00 43° ESE 21:12:47 10° NE
COSMO-SKYMED 1 3.7 21:04:47 10° SSW 21:08:19 24° W 21:11:48 10° NW
STARLINK 1029 4.5 21:05:26 10° SSW 21:08:21 37° SE 21:11:17 10° ENE
STARLINK-72 4.2 21:05:59 15° W 21:08:48 34° NW 21:12:30 10° NNE
Cosmos 2297 Rocket 3.7 21:08:32 14° W 21:09:55 16° W 21:13:08 10° SW
Cosmos 2322 Rocket 2.8 21:04:27 10° S 21:10:00 62° ESE 21:15:37 10° NNE
USA 32 4.0 21:04:56 10° N 21:10:09 69° W 21:15:20 10° S
STARLINK-50 4.3 21:07:39 14° W 21:10:32 33° NW 21:14:13 10° NNE
STARLINK-59 4.4 21:09:23 14° W 21:12:14 31° NW 21:15:51 10° NNE
Cosmos 1606 Rocket 4.0 21:08:25 10° SSW 21:12:35 39° W 21:16:47 10° N
ATLAS 2A CENTAUR R/B 3.8 21:09:26 10° SSW 21:12:55 29° SSE 21:22:33 10° E
Cosmos 1953 3.6 21:10:40 10° SW 21:13:42 20° WNW 21:16:46 10° NNW
STARLINK-56 4.4 21:10:50 13° W 21:13:52 31° NW 21:17:29 10° NNE
STARLINK 1037 4.4 21:11:16 10° SSW 21:14:35 44° SE 21:17:55 10° ENE
Cosmos 1703 3.4 21:10:42 10° N 21:14:40 77° E 21:18:35 10° S
Cosmos 1726 Rocket 3.8 21:10:58 10° SSW 21:15:15 47° W 21:19:33 10° N
Starlink (trailer) 4.4 21:12:22 13° W 21:15:27 30° NW 21:19:03 10° NNE
STARLINK 1047 4.4 21:12:08 10° SSW 21:15:28 45° SE 21:18:50 10° ENE
NOSS 3-2 (A) 4.2 21:07:54 10° NNW 21:15:47 90° NW 21:24:23 10° SSE
STARLINK-38 4.5 21:13:57 12° W 21:17:06 29° NW 21:20:40 10° NNE
STARLINK 1059 4.2 21:14:43 10° SSW 21:18:06 49° SE 21:21:31 10° NE
STARLINK-46 2.2 21:17:52 13° NW 21:19:33 57° NE 21:21:34 10° SE
STARLINK 1057 4.0 21:17:12 10° SSW 21:20:36 53° SE 21:24:02 10° NE
Cosmos 2227 Rocket 3.9 21:19:45 11° WNW 21:21:46 13° W 21:24:19 10° SW
STARLINK 1052 3.9 21:19:42 10° SSW 21:23:08 57° SE 21:26:36 10° NE
STARLINK 1068 3.7 21:22:13 10° SSW 21:25:40 62° SE 21:29:09 10° NE
Cosmos 2263 Rocket 2.6 21:23:59 10° NNW 21:29:36 66° ENE 21:35:13 10° SSE
STARLINK 1060 3.5 21:27:16 10° SW 21:30:45 71° SE 21:34:16 10° NE
ADEOS Rocket 2.7 21:26:17 10° S 21:31:47 73° WSW 21:37:19 10° NNW
RESURS DK-1 3.7 21:28:16 10° S 21:32:12 45° ESE 21:36:09 10° NE
STARLINK 1030 3.4 21:28:53 10° SW 21:32:21 74° SE 21:35:51 10° NE
SEDSat Delta rocket 4.0 21:27:16 10° W 21:33:00 54° S 21:37:58 10° ESE
CENTAUR R/B 3.7 21:24:46 10° NNW 21:33:00 65° ENE 21:41:42 10° SE
Cosmos 2218 Rocket 4.1 21:26:52 10° NNW 21:33:13 69° W 21:39:28 10° S
AQUARIUS 4.2 21:31:07 10° N 21:35:34 64° WNW 21:40:01 10° SSW
STARLINK 1020 3.3 21:32:23 10° SW 21:35:53 82° SE 21:39:25 10° NE
ATLAS 2AS CENTAUR R/B 3.4 21:28:41 10° WSW 21:36:11 45° NW 21:43:50 10° NNE
STARLINK 1034 3.2 21:34:57 10° SW 21:38:28 87° SE 21:42:00 10° NE
ALOS 4.0 21:37:46 10° NW 21:39:16 11° WNW 21:40:46 10° W
